CentOS Mirror
 CentOS on the Web: CentOS.org | Mailing Lists | Mirror List | IRC | Forums | Bugs | Donate
[ICO]NameLast modifiedSizeDescription

[PARENTDIR]Parent Directory  -  
[   ]rh-perl520-2.0-7.el6.x86_64.rpm2015-12-05 08:57 5.0K 
[   ]rh-perl520-build-2.0-7.el6.x86_64.rpm2015-12-05 08:57 6.1K 
[   ]rh-perl520-mod_perl-2.0.8-8.20150122svn1653807.el6.x86_64.rpm2015-12-05 08:57 3.1M 
[   ]rh-perl520-mod_perl-devel-2.0.8-8.20150122svn1653807.el6.x86_64.rpm2015-12-05 08:57 285K 
[   ]rh-perl520-perl-5.20.1-324.el6.x86_64.rpm2015-12-05 08:57 8.1M 
[   ]rh-perl520-perl-Algorithm-Diff-1.1903-1.el6.noarch.rpm2015-12-05 08:57 46K 
[   ]rh-perl520-perl-App-a2p-1.007-5.el6.x86_64.rpm2015-12-05 08:57 53K 
[   ]rh-perl520-perl-App-find2perl-1.003-5.el6.noarch.rpm2015-12-05 08:57 21K 
[   ]rh-perl520-perl-App-s2p-1.002-3.el6.noarch.rpm2015-12-05 08:57 43K 
[   ]rh-perl520-perl-Archive-Tar-2.04-3.el6.noarch.rpm2015-12-05 08:57 71K 
[   ]rh-perl520-perl-Archive-Zip-1.39-2.el6.noarch.rpm2015-12-05 08:57 99K 
[   ]rh-perl520-perl-B-Debug-1.22-4.el6.noarch.rpm2015-12-05 08:57 19K 
[   ]rh-perl520-perl-BSD-Resource-1.290.700-1.el6.x86_64.rpm2015-12-05 08:57 36K 
[   ]rh-perl520-perl-Business-ISBN-2.09-5.el6.noarch.rpm2015-12-05 08:57 26K 
[   ]rh-perl520-perl-Business-ISBN-Data-20140910.002-1.el6.noarch.rpm2015-12-05 08:57 25K 
[   ]rh-perl520-perl-CGI-4.04-5.el6.noarch.rpm2015-12-05 08:57 193K 
[   ]rh-perl520-perl-CGI-Fast-2.05-5.el6.noarch.rpm2015-12-05 08:57 14K 
[   ]rh-perl520-perl-CPAN-2.05-311.el6.noarch.rpm2015-12-05 08:57 551K 
[   ]rh-perl520-perl-CPAN-Meta-2.143240-2.el6.noarch.rpm2015-12-05 08:57 160K 
[   ]rh-perl520-perl-CPAN-Meta-Requirements-2.131-6.el6.noarch.rpm2015-12-05 08:57 29K 
[   ]rh-perl520-perl-CPAN-Meta-YAML-0.012-325.el6.noarch.rpm2015-12-05 08:57 28K 
[   ]rh-perl520-perl-Capture-Tiny-0.27-3.el6.noarch.rpm2015-12-05 08:57 31K 
[   ]rh-perl520-perl-Carp-1.33.01-310.el6.noarch.rpm2015-12-05 08:57 23K 
[   ]rh-perl520-perl-Class-Singleton-1.5-1.el6.noarch.rpm2015-12-05 08:57 17K 
[   ]rh-perl520-perl-Compress-Bzip2-2.19-2.el6.x86_64.rpm2015-12-05 08:57 63K 
[   ]rh-perl520-perl-Compress-Raw-Bzip2-2.068-3.el6.x86_64.rpm2015-12-05 08:57 31K 
[   ]rh-perl520-perl-Compress-Raw-Zlib-2.068-4.el6.x86_64.rpm2015-12-05 08:57 56K 
[   ]rh-perl520-perl-DBD-MySQL-4.029-1.el6.x86_64.rpm2015-12-05 08:57 139K 
[   ]rh-perl520-perl-DBD-Pg-3.4.2-3.el6.x86_64.rpm2015-12-05 08:57 199K 
[   ]rh-perl520-perl-DBD-Pg-tests-3.4.2-3.el6.x86_64.rpm2015-12-05 08:57 92K 
[   ]rh-perl520-perl-DBD-SQLite-1.37-2.el6.x86_64.rpm2015-12-05 08:57 104K 
[   ]rh-perl520-perl-DBI-1.633-6.el6.x86_64.rpm2015-12-05 08:57 725K 
[   ]rh-perl520-perl-DB_File-1.835-3.el6.x86_64.rpm2015-12-05 08:57 72K 
[   ]rh-perl520-perl-Data-Dumper-2.154-2.el6.x86_64.rpm2015-12-05 08:57 48K 
[   ]rh-perl520-perl-Data-Flow-1.02-9.el6.noarch.rpm2015-12-05 08:57 12K 
[   ]rh-perl520-perl-Data-OptList-0.109-6.el6.noarch.rpm2015-12-05 08:57 24K 
[   ]rh-perl520-perl-Data-Section-0.200006-4.el6.noarch.rpm2015-12-05 08:57 24K 
[   ]rh-perl520-perl-Date-ISO8601-0.004-11.el6.noarch.rpm2015-12-05 08:57 16K 
[   ]rh-perl520-perl-DateTime-1.18-1.el6.x86_64.rpm2015-12-05 08:57 121K 
[   ]rh-perl520-perl-DateTime-Locale-0.45-12.el6.noarch.rpm2015-12-05 08:57 1.6M 
[   ]rh-perl520-perl-DateTime-TimeZone-1.83-5.el6.noarch.rpm2015-12-05 08:57 445K 
[   ]rh-perl520-perl-DateTime-TimeZone-SystemV-0.009-4.el6.noarch.rpm2015-12-05 08:57 20K 
[   ]rh-perl520-perl-DateTime-TimeZone-Tzfile-0.010-2.el6.noarch.rpm2015-12-05 08:57 17K 
[   ]rh-perl520-perl-Devel-CheckBin-0.02-3.el6.noarch.rpm2015-12-05 08:57 14K 
[   ]rh-perl520-perl-Devel-FindPerl-0.012-3.el6.noarch.rpm2015-12-05 08:57 17K 
[   ]rh-perl520-perl-Devel-PPPort-3.25-2.el6.x86_64.rpm2015-12-05 08:57 105K 
[   ]rh-perl520-perl-Devel-Size-0.79-8.el6.x86_64.rpm2015-12-05 08:57 36K 
[   ]rh-perl520-perl-Digest-1.17-310.el6.noarch.rpm2015-12-05 08:57 21K 
[   ]rh-perl520-perl-Digest-MD5-2.53-311.el6.x86_64.rpm2015-12-05 08:57 28K 
[   ]rh-perl520-perl-Digest-SHA-5.93-4.el6.x86_64.rpm2015-12-05 08:57 57K 
[   ]rh-perl520-perl-Encode-2.67-2.el6.x86_64.rpm2015-12-05 08:57 1.4M 
[   ]rh-perl520-perl-Encode-devel-2.67-2.el6.x86_64.rpm2015-12-05 08:57 29K 
[   ]rh-perl520-perl-Env-1.04-310.el6.noarch.rpm2015-12-05 08:57 15K 
[   ]rh-perl520-perl-Exporter-5.70-313.el6.noarch.rpm2015-12-05 08:57 28K 
[   ]rh-perl520-perl-Exporter-Tiny-0.042-3.el6.noarch.rpm2015-12-05 08:57 36K 
[   ]rh-perl520-perl-ExtUtils-CBuilder-0.280220-1.el6.noarch.rpm2015-12-05 08:57 41K 
[   ]rh-perl520-perl-ExtUtils-Command-1.20-1.el6.noarch.rpm2015-12-05 08:57 21K 
[   ]rh-perl520-perl-ExtUtils-Embed-1.32-324.el6.noarch.rpm2015-12-05 08:57 55K 
[   ]rh-perl520-perl-ExtUtils-Install-2.04-3.el6.noarch.rpm2015-12-05 08:57 40K 
[   ]rh-perl520-perl-ExtUtils-MakeMaker-7.04-1.el6.noarch.rpm2015-12-05 08:57 273K 
[   ]rh-perl520-perl-ExtUtils-Manifest-1.70-1.el6.noarch.rpm2015-12-05 08:57 31K 
[   ]rh-perl520-perl-ExtUtils-Miniperl-1.01-324.el6.noarch.rpm2015-12-05 08:57 53K 
[   ]rh-perl520-perl-ExtUtils-ParseXS-3.24-310.el6.noarch.rpm2015-12-05 08:57 75K 
[   ]rh-perl520-perl-FCGI-0.77-4.el6.x86_64.rpm2015-12-05 08:57 39K 
[   ]rh-perl520-perl-File-Fetch-0.48-310.el6.noarch.rpm2015-12-05 08:57 26K 
[   ]rh-perl520-perl-File-HomeDir-1.00-8.el6.noarch.rpm2015-12-05 08:57 56K 
[   ]rh-perl520-perl-File-Path-2.09-313.el6.noarch.rpm2015-12-05 08:57 26K 
[   ]rh-perl520-perl-File-Temp-0.23.04-310.el6.noarch.rpm2015-12-05 08:57 57K 
[   ]rh-perl520-perl-File-Which-1.09-21.el6.noarch.rpm2015-12-05 08:57 18K 
[   ]rh-perl520-perl-Filter-1.53-3.el6.x86_64.rpm2015-12-05 08:57 69K 
[   ]rh-perl520-perl-Filter-Simple-0.91-340.el6.noarch.rpm2015-12-05 08:57 22K 
[   ]rh-perl520-perl-Getopt-Long-2.42-310.el6.noarch.rpm2015-12-05 08:57 56K 
[   ]rh-perl520-perl-HTTP-Tiny-0.053-1.el6.noarch.rpm2015-12-05 08:57 47K 
[   ]rh-perl520-perl-IO-Compress-2.068-3.el6.noarch.rpm2015-12-05 08:57 251K 
[   ]rh-perl520-perl-IO-Socket-IP-0.35-3.el6.noarch.rpm2015-12-05 08:57 40K 
[   ]rh-perl520-perl-IO-Zlib-1.10-324.el6.noarch.rpm2015-12-05 08:57 57K 
[   ]rh-perl520-perl-IO-stringy-2.110-27.el6.noarch.rpm2015-12-05 08:57 65K 
[   ]rh-perl520-perl-IPC-Cmd-0.92-310.el6.noarch.rpm2015-12-05 08:57 35K 
[   ]rh-perl520-perl-IPC-Run3-0.048-3.el6.noarch.rpm2015-12-05 08:57 39K 
[   ]rh-perl520-perl-IPC-System-Simple-1.25-4.el6.noarch.rpm2015-12-05 08:57 36K 
[   ]rh-perl520-perl-JSON-PP-2.27300-3.el6.noarch.rpm2015-12-05 08:57 55K 
[   ]rh-perl520-perl-Linux-Pid-0.04-24.el6.x86_64.rpm2015-12-05 08:57 12K 
[   ]rh-perl520-perl-List-AllUtils-0.09-2.el6.noarch.rpm2015-12-05 08:57 23K 
[   ]rh-perl520-perl-List-MoreUtils-0.402-3.el6.x86_64.rpm2015-12-05 08:57 66K 
[   ]rh-perl520-perl-Locale-Codes-3.33-1.el6.noarch.rpm2015-12-05 08:57 298K 
[   ]rh-perl520-perl-Locale-Maketext-1.26-4.el6.noarch.rpm2015-12-05 08:57 90K 
[   ]rh-perl520-perl-Locale-Maketext-Simple-0.21-324.el6.noarch.rpm2015-12-05 08:57 55K 
[   ]rh-perl520-perl-MRO-Compat-0.12-8.el6.noarch.rpm2015-12-05 08:57 19K 
[   ]rh-perl520-perl-Module-Build-0.42.10-7.el6.noarch.rpm2015-12-05 08:57 274K 
[   ]rh-perl520-perl-Module-Build-Deprecated-0.4210-2.el6.noarch.rpm2015-12-05 08:57 21K 
[   ]rh-perl520-perl-Module-CoreList-5.20141220-3.el6.noarch.rpm2015-12-05 08:57 67K 
[   ]rh-perl520-perl-Module-CoreList-tools-5.20141220-3.el6.noarch.rpm2015-12-05 08:57 11K 
[   ]rh-perl520-perl-Module-Implementation-0.09-6.el6.noarch.rpm2015-12-05 08:57 18K 
[   ]rh-perl520-perl-Module-Load-0.32-310.el6.noarch.rpm2015-12-05 08:57 13K 
[   ]rh-perl520-perl-Module-Load-Conditional-0.64-1.el6.noarch.rpm2015-12-05 08:57 18K 
[   ]rh-perl520-perl-Module-Loaded-0.08-324.el6.noarch.rpm2015-12-05 08:57 51K 
[   ]rh-perl520-perl-Module-Metadata-1.000025-1.el6.noarch.rpm2015-12-05 08:57 35K 
[   ]rh-perl520-perl-Module-Runtime-0.014-4.el6.noarch.rpm2015-12-05 08:57 20K 
[   ]rh-perl520-perl-Package-Constants-0.06-2.el6.noarch.rpm2015-12-05 08:57 8.3K 
[   ]rh-perl520-perl-Package-Generator-1.106-4.el6.noarch.rpm2015-12-05 08:57 22K 
[   ]rh-perl520-perl-Params-Check-0.38-310.el6.noarch.rpm2015-12-05 08:57 18K 
[   ]rh-perl520-perl-Params-Classify-0.013-13.el6.x86_64.rpm2015-12-05 08:57 26K 
[   ]rh-perl520-perl-Params-Util-1.07-11.el6.x86_64.rpm2015-12-05 08:57 36K 
[   ]rh-perl520-perl-Params-Validate-1.16-4.el6.x86_64.rpm2015-12-05 08:57 71K 
[   ]rh-perl520-perl-Parse-CPAN-Meta-1.4414-312.el6.noarch.rpm2015-12-05 08:57 16K 
[   ]rh-perl520-perl-PathTools-3.47-311.el6.x86_64.rpm2015-12-05 08:57 79K 
[   ]rh-perl520-perl-Perl-OSType-1.007-326.el6.noarch.rpm2015-12-05 08:57 22K 
[   ]rh-perl520-perl-Pod-Checker-1.71-3.el6.noarch.rpm2015-12-05 08:57 26K 
[   ]rh-perl520-perl-Pod-Escapes-1.06-324.el6.noarch.rpm2015-12-05 08:57 57K 
[   ]rh-perl520-perl-Pod-Parser-1.62-313.el6.noarch.rpm2015-12-05 08:57 103K 
[   ]rh-perl520-perl-Pod-Perldoc-3.24-7.el6.noarch.rpm2015-12-05 08:57 79K 
[   ]rh-perl520-perl-Pod-Simple-3.28-310.el6.noarch.rpm2015-12-05 08:57 202K 
[   ]rh-perl520-perl-Pod-Usage-1.64-3.el6.noarch.rpm2015-12-05 08:58 26K 
[   ]rh-perl520-perl-Readonly-2.00-2.el6.noarch.rpm2015-12-05 08:58 40K 
[   ]rh-perl520-perl-Scalar-List-Utils-1.41-1.el6.x86_64.rpm2015-12-05 08:58 52K 
[   ]rh-perl520-perl-Socket-2.016-1.el6.x86_64.rpm2015-12-05 08:58 48K 
[   ]rh-perl520-perl-Software-License-0.103010-5.el6.noarch.rpm2015-12-05 08:58 125K 
[   ]rh-perl520-perl-Storable-2.51-4.el6.x86_64.rpm2015-12-05 08:58 76K 
[   ]rh-perl520-perl-Sub-Exporter-0.987-5.el6.noarch.rpm2015-12-05 08:58 67K 
[   ]rh-perl520-perl-Sub-Install-0.928-5.el6.noarch.rpm2015-12-05 08:58 21K 
[   ]rh-perl520-perl-Sub-Name-0.12-1.el6.x86_64.rpm2015-12-05 08:58 25K 
[   ]rh-perl520-perl-Sys-Syslog-0.33-314.el6.x86_64.rpm2015-12-05 08:58 41K 
[   ]rh-perl520-perl-Term-ANSIColor-4.03-3.el6.noarch.rpm2015-12-05 08:58 40K 
[   ]rh-perl520-perl-Test-FailWarnings-0.008-4.el6.noarch.rpm2015-12-05 08:58 16K 
[   ]rh-perl520-perl-Test-Fatal-0.014-2.el6.noarch.rpm2015-12-05 08:58 23K 
[   ]rh-perl520-perl-Test-Harness-3.34-3.el6.noarch.rpm2015-12-05 08:58 271K 
[   ]rh-perl520-perl-Test-Requires-0.08-6.el6.noarch.rpm2015-12-05 08:58 20K 
[   ]rh-perl520-perl-Test-Simple-1.001014-2.el6.noarch.rpm2015-12-05 08:58 197K 
[   ]rh-perl520-perl-Test-Warnings-0.020-1.el6.noarch.rpm2015-12-05 08:58 29K 
[   ]rh-perl520-perl-Text-Diff-1.41-10.el6.noarch.rpm2015-12-05 08:58 37K 
[   ]rh-perl520-perl-Text-Glob-0.09-11.el6.noarch.rpm2015-12-05 08:58 11K 
[   ]rh-perl520-perl-Text-ParseWords-3.29-310.el6.noarch.rpm2015-12-05 08:58 13K 
[   ]rh-perl520-perl-Text-Template-1.45-18.el6.noarch.rpm2015-12-05 08:58 62K 
[   ]rh-perl520-perl-Thread-Queue-3.05-310.el6.noarch.rpm2015-12-05 08:58 17K 
[   ]rh-perl520-perl-Tie-IxHash-1.22-19.el6.noarch.rpm2015-12-05 08:58 16K 
[   ]rh-perl520-perl-Time-HiRes-1.9726-310.el6.x86_64.rpm2015-12-05 08:58 44K 
[   ]rh-perl520-perl-Time-Local-1.2300-310.el6.noarch.rpm2015-12-05 08:58 24K 
[   ]rh-perl520-perl-Time-Piece-1.27-324.el6.x86_64.rpm2015-12-05 08:58 73K 
[   ]rh-perl520-perl-Try-Tiny-0.22-6.el6.noarch.rpm2015-12-05 08:58 30K 
[   ]rh-perl520-perl-URI-1.65-2.el6.noarch.rpm2015-12-05 08:58 102K 
[   ]rh-perl520-perl-autodie-2.26-3.el6.noarch.rpm2015-12-05 08:57 89K 
[   ]rh-perl520-perl-constant-1.31-312.el6.noarch.rpm2015-12-05 08:57 19K 
[   ]rh-perl520-perl-core-5.20.1-324.el6.x86_64.rpm2015-12-05 08:57 49K 
[   ]rh-perl520-perl-devel-5.20.1-324.el6.x86_64.rpm2015-12-05 08:57 533K 
[   ]rh-perl520-perl-encoding-2.67-2.el6.x86_64.rpm2015-12-05 08:57 54K 
[   ]rh-perl520-perl-experimental-0.013-2.el6.noarch.rpm2015-12-05 08:57 16K 
[   ]rh-perl520-perl-libs-5.20.1-324.el6.x86_64.rpm2015-12-05 08:57 721K 
[   ]rh-perl520-perl-local-lib-2.000015-2.el6.noarch.rpm2015-12-05 08:57 67K 
[   ]rh-perl520-perl-macros-5.20.1-324.el6.x86_64.rpm2015-12-05 08:57 49K 
[   ]rh-perl520-perl-parent-0.228-311.el6.noarch.rpm2015-12-05 08:57 12K 
[   ]rh-perl520-perl-podlators-2.5.3-3.el6.noarch.rpm2015-12-05 08:57 108K 
[   ]rh-perl520-perl-tests-5.20.1-324.el6.x86_64.rpm2015-12-05 08:58 1.1M 
[   ]rh-perl520-perl-threads-1.96-1.el6.x86_64.rpm2015-12-05 08:58 50K 
[   ]rh-perl520-perl-threads-shared-1.46-310.el6.x86_64.rpm2015-12-05 08:58 37K 
[   ]rh-perl520-perl-version-0.99.09-3.el6.x86_64.rpm2015-12-05 08:58 85K 
[   ]rh-perl520-runtime-2.0-7.el6.x86_64.rpm2015-12-05 08:58 1.0M 
[   ]rh-perl520-scldevel-2.0-7.el6.x86_64.rpm2015-12-05 08:58 11K